Weather in Ukunda

Kenya     4°17′36″S   39°33′56″E
temp.,
°C
wind,
m/s
gust,
m/s
humid.,
%
clouds,
%
prec.,
mm/h
press.,
hPa
HPBL,
m
8 may, sat
sat800:00+24s61073100 0.0 1013658
03:00+23ssw5108271 0.1 1012459
06:00+23ssw51185100 0.1 1013566
09:00+26ssw7106892 0.1 1015991
12:00+29ssw9124898 0.0 10131259
15:00+28s9114898 0.0 10101154
18:00+25s71265100 0.0 1011766
21:00+25sse5970100 0.0 1013546
9 may, sun
sun900:00+24s51074100 0.0 1013453
03:00+24ssw51076100 0.0 1011554
06:00+23ssw51083100 0.0 1012486
09:00+27ssw71067100 0.0 1015969
12:00+29s895084 0.0 10131255
15:00+27s81057100 0.0 10111035
18:00+25s5965100 0.0 1012651
21:00+24s5971100 0.0 1013431
10 may, mon
mon1000:00+24s4975100 0.0 1013447
03:00+23ssw3882100 0.0 1012229
06:00+22sw3787100 0.0 1013208
09:00+26ssw6968100 0.0 1015963
12:00+27ssw71064100 0.0 1014927
15:00+27s81158100 0.0 10111076
18:00+25s61170100 0.0 1012741
21:00+25s51074100 0.0 1014699
11 may, tue
tue1100:00+25ssw61176100 0.0 1014776
03:00+24ssw61180100 0.0 1014711
06:00+22sw51188100 0.0 1015463
09:00+26ssw71158100 0.0 10161078
12:00+30s9114450 0.0 10151419
15:00+29s9125061 0.0 10131255
18:00+25s7126689 0.0 1013820
21:00+24s7127092 0.0 1015690
12 may, wed
wed1200:00+24s6117195 0.0 1015698
03:00+24ssw6117398 0.0 1014749
06:00+22sw511847 0.0 1015448
09:00+27ssw710616 0.0 10171040
12:00+29s91149100 0.0 10151495
15:00+29s9115098 0.0 10131355
18:00+25s6127019 0.0 1014732
21:00+25s6117193 0.0 1015853